{"data":{"norad_id":65555,"intl_designator":"2025-201F","name":"GEESAT-5 06","alt_names":[],"object_type":"PAYLOAD","status":"ACTIVE","operator":null,"country":"PRC","launch_date":"2025-09-08","launch_site_code":"YSLA","launch_vehicle":null,"mission":null,"orbit_class":"UNKNOWN","rcs_meters":null,"size_class":null,"mass_kg":null,"dimensions":null,"purposes":[],"wikipedia_slug":null,"has_3d_model":false,"image_url":null,"decayed_at":null,"tle_current":{"epoch":"2026-09-20T11:56:39.044832Z","epoch_age_seconds":152790,"freshness":"FRESH","line1":"1 65555U 25201F   26263.49767413  .00000832  00000+0  12468-3 0  9992","line2":"2 65555  49.9924 317.0980 0013539 327.5929  32.4177 14.84464821 55940","mean_motion":14.84464821,"eccentricity":0.0013539,"inclination_deg":49.9924,"raan_deg":317.098,"arg_perigee_deg":327.5929,"mean_anomaly_deg":32.4177,"bstar":0.00012468,"rev_number":5594,"period_min":97.004656468043,"perigee_km":605.79783145325,"apogee_km":624.73456863834,"semimajor_km":6993.4032000458,"source":"CELESTRAK","updated_at":"2026-09-21T09:00:15.425504Z"}}}